Home > Weather > Melsungen > Past weeks

Flag for Germany Past Weather in Melsungen, Hesse, Germany — Yesterday and Last 2 Weeks

Now
70 °F

Sunny.


Feels Like: 74 °F
Forecast: 58 / 91 °F
Wind: 2 mph from East

Location: Fritzlar

Current Time: Aug 25, 2016 at 12:03:41 PM

Latest Report: Aug 25, 2016 at 10:00 AM


Visibility: 19 mi

Pressure: 30.13 "Hg

Humidity: 68%

Dew Point: 59 °F

Location of MelsungenLocation

Past Weather in Melsungen — Graph

°F

Melsungen Temperature Yesterday

Maximum temperature yesterday: 87 °F (at 6:00 PM)
Minimum temperature yesterday: 53 °F (at 7:00 AM)
Average temperature yesterday: 71 °F

High & Low Weather Summary for the Past Weeks

 TemperatureHumidityPressure
High87 °F (Aug 24, 6:00 PM)97% (Aug 13, 6:00 AM)30.37 "Hg (Aug 13, 6:00 AM)
Low36 °F (Aug 11, 6:00 AM)30% (Aug 18, 6:00 PM)29.76 "Hg (Aug 18, 6:00 PM)
Average63 °F70%30.11 "Hg
* Reported Aug 10 10:00 AM — Aug 25 10:00 AM, Melsungen, Weather by CustomWeather, © 2016

Note: Actual official high and low records may vary slightly from our data, if they occured in-between our weather recording intervals... More about our weather records

Advertising

Melsungen Weather History for the Previous 24 Hours

Scroll right to see more
 ConditionsComfort  
Time TempWeatherWind HumidityBarometerVisibility
10:00 AM
Thu, Aug 25
70 °FSunny.2 mph68%30.13 "Hg19 mi
9:00 AM66 °FSunny.N/A80%30.15 "Hg19 mi
7:00 AM53 °FFog.No wind96%30.17 "Hg19 mi
6:00 AM54 °FFog.1 mph96%30.17 "Hg25 mi
4:00 AM58 °FClear.1 mph94%30.16 "Hg31 mi
3:00 AM59 °FClear.1 mph87%30.17 "Hg31 mi
1:00 AM64 °FClear.2 mph79%30.17 "Hg31 mi
12:00 AM63 °FClear.1 mph82%30.17 "Hg31 mi
10:00 PM
Wed, Aug 24
69 °FClear.2 mph73%30.17 "Hg31 mi
9:00 PM77 °FClear.1 mph54%30.15 "Hg37 mi
7:00 PM85 °FSunny.5 mph39%30.14 "Hg37 mi
6:00 PM87 °FSunny.5 mph36%30.14 "Hg37 mi
4:00 PM87 °FSunny.5 mph36%30.17 "Hg37 mi
3:00 PM86 °FSunny.6 mph37%30.18 "Hg31 mi
1:00 PM83 °FSunny.3 mph40%30.21 "Hg31 mi
12:00 PM80 °FSunny.2 mph48%30.23 "Hg25 mi
Weather by CustomWeather, © 2016

See weather overviewHow to use our weather pages